When you browse on this site, cookies collect data to enhance your experience and personalize the content and advertising you see.
Visit our Privacy Policy to learn more. By continuing to use the site, you agree to this use of cookies and data.
  • în România
  • Lista ţărilor
  • Pe 7 zile
  • Temperatura apei
  • Hartă satelitară
  • Meteo pe hartă
  • Widget-uri
  • user-avatar
    Intrare

    Meteo pe oră la Memphis

    Astăzi, 12 Decembrie, Miercuri

    Timp Temperatura Precipitaţii Vânt Presiune Umiditate
    00:00 +3°C° 0 mm 4 m/s 759 mmHg 73%
    01:00 +2°C° 0 mm 5 m/s 759 mmHg 72%
    02:00 +3°C° 0 mm 5 m/s 759 mmHg 70%
    03:00 +3°C° 0 mm 5 m/s 758 mmHg 69%
    04:00 +3°C° 0 mm 5 m/s 758 mmHg 70%
    05:00 +3°C° 0 mm 5 m/s 758 mmHg 71%
    06:00 +3°C° 0 mm 5 m/s 758 mmHg 71%
    07:00 +3°C° 0 mm 5 m/s 758 mmHg 71%
    08:00 +4°C° 0 mm 6 m/s 758 mmHg 70%
    09:00 +5°C° 0 mm 6 m/s 758 mmHg 70%
    10:00 +7°C° 0 mm 6 m/s 757 mmHg 68%
    11:00 +9°C° 0 mm 6 m/s 757 mmHg 66%
    12:00 +10°C° 0 mm 6 m/s 757 mmHg 64%
    13:00 +10°C° 0 mm 6 m/s 756 mmHg 65%
    14:00 +10°C° 0 mm 5 m/s 756 mmHg 67%
    15:00 +10°C° 0 mm 5 m/s 755 mmHg 69%
    16:00 +9°C° 0 mm 5 m/s 755 mmHg 72%
    17:00 +10°C° 0 mm 4 m/s 755 mmHg 75%
    18:00 +9°C° 0 mm 3 m/s 755 mmHg 79%
    19:00 +8°C° 0 mm 4 m/s 755 mmHg 80%
    20:00 +10°C° 0 mm 4 m/s 755 mmHg 81%
    21:00 +10°C° 0 mm 4 m/s 755 mmHg 81%
    22:00 +10°C° 0 mm 4 m/s 755 mmHg 82%
    23:00 +10°C° 0 mm 4 m/s 755 mmHg 83%

    Mâine, 13 Decembrie, Joi

    Timp Temperatura Precipitaţii Vânt Presiune Umiditate
    00:00 +10°C° 0 mm 4 m/s 755 mmHg 84%
    01:00 +10°C° 0.2 mm 5 m/s 754 mmHg 86%
    02:00 +10°C° 0.2 mm 5 m/s 754 mmHg 88%
    03:00 +10°C° 0.2 mm 5 m/s 754 mmHg 90%
    04:00 +10°C° 0.7 mm 5 m/s 754 mmHg 90%
    05:00 +10°C° 0.7 mm 5 m/s 753 mmHg 91%
    06:00 +10°C° 0.7 mm 5 m/s 753 mmHg 92%
    07:00 +10°C° 0.8 mm 5 m/s 753 mmHg 90%
    08:00 +10°C° 0.8 mm 6 m/s 753 mmHg 89%
    09:00 +11°C° 0.8 mm 6 m/s 754 mmHg 88%
    10:00 +13°C° 0.2 mm 6 m/s 753 mmHg 85%
    11:00 +14°C° 0.2 mm 6 m/s 753 mmHg 82%
    12:00 +15°C° 0.2 mm 7 m/s 752 mmHg 79%
    13:00 +15°C° 0.6 mm 6 m/s 752 mmHg 81%
    14:00 +14°C° 0.6 mm 6 m/s 751 mmHg 84%
    15:00 +14°C° 0.6 mm 6 m/s 751 mmHg 87%
    16:00 +14°C° 1.8 mm 6 m/s 751 mmHg 88%
    17:00 +12°C° 1.8 mm 7 m/s 750 mmHg 88%
    18:00 +12°C° 1.8 mm 7 m/s 750 mmHg 88%
    19:00 +12°C° 0.9 mm 7 m/s 750 mmHg 88%
    20:00 +12°C° 0.9 mm 7 m/s 750 mmHg 87%
    21:00 +12°C° 0.9 mm 7 m/s 749 mmHg 87%
    22:00 +12°C° 0.2 mm 7 m/s 749 mmHg 86%
    23:00 +12°C° 0.2 mm 7 m/s 748 mmHg 86%

    Poimâine, 14 Decembrie, Vineri

    Timp Temperatura Precipitaţii Vânt Presiune Umiditate
    00:00 +13°C° 0.2 mm 6 m/s 748 mmHg 86%
    01:00 +13°C° 0.7 mm 6 m/s 748 mmHg 87%
    02:00 +13°C° 0.7 mm 6 m/s 747 mmHg 88%
    03:00 +13°C° 0.7 mm 6 m/s 747 mmHg 89%
    04:00 +13°C° 0.4 mm 6 m/s 747 mmHg 89%
    05:00 +13°C° 0.4 mm 6 m/s 746 mmHg 88%
    06:00 +13°C° 0.4 mm 6 m/s 746 mmHg 88%
    07:00 +13°C° 0.8 mm 6 m/s 746 mmHg 88%
    08:00 +13°C° 0.8 mm 6 m/s 747 mmHg 88%
    09:00 +13°C° 0.8 mm 5 m/s 747 mmHg 89%
    10:00 +12°C° 1.2 mm 5 m/s 747 mmHg 86%
    11:00 +12°C° 1.2 mm 4 m/s 747 mmHg 83%
    12:00 +11°C° 1.2 mm 4 m/s 747 mmHg 81%
    13:00 +11°C° 0.1 mm 4 m/s 747 mmHg 78%
    14:00 +11°C° 0.1 mm 4 m/s 747 mmHg 74%
    15:00 +10°C° 0.1 mm 4 m/s 747 mmHg 71%
    16:00 +10°C° 0 mm 3 m/s 748 mmHg 74%
    17:00 +10°C° 0 mm 1 m/s 748 mmHg 76%
    18:00 +8°C° 0 mm 0 m/s 748 mmHg 79%
    19:00 +9°C° 0 mm 1 m/s 748 mmHg 79%
    20:00 +9°C° 0 mm 1 m/s 749 mmHg 80%
    21:00 +9°C° 0 mm 1 m/s 749 mmHg 81%
    22:00 +8°C° 0 mm 1 m/s 749 mmHg 82%
    23:00 +8°C° 0 mm 1 m/s 749 mmHg 83%

    15 Decembrie, Sâmbătă

    Timp Temperatura Precipitaţii Vânt Presiune Umiditate
    00:00 +7°C° 0 mm 2 m/s 749 mmHg 84%
    01:00 +7°C° 0.1 mm 2 m/s 750 mmHg 84%
    02:00 +7°C° 0.1 mm 2 m/s 750 mmHg 85%
    03:00 +7°C° 0.1 mm 3 m/s 750 mmHg 86%
    04:00 +7°C° 0 mm 3 m/s 750 mmHg 88%
    05:00 +7°C° 0 mm 4 m/s 751 mmHg 91%
    06:00 +7°C° 0 mm 4 m/s 751 mmHg 93%
    07:00 +7°C° 0.1 mm 4 m/s 752 mmHg 92%
    08:00 +8°C° 0.1 mm 5 m/s 753 mmHg 90%
    09:00 +8°C° 0.1 mm 6 m/s 753 mmHg 88%
    10:00 +9°C° 0 mm 6 m/s 753 mmHg 85%
    11:00 +10°C° 0 mm 6 m/s 753 mmHg 81%
    12:00 +10°C° 0 mm 6 m/s 754 mmHg 78%
    13:00 +10°C° 0 mm 6 m/s 754 mmHg 77%
    14:00 +10°C° 0 mm 5 m/s 754 mmHg 77%
    15:00 +12°C° 0 mm 5 m/s 754 mmHg 76%
    16:00 +11°C° 0 mm 4 m/s 755 mmHg 80%
    17:00 +10°C° 0 mm 3 m/s 756 mmHg 83%
    18:00 +9°C° 0 mm 2 m/s 756 mmHg 87%
    19:00 +9°C° 0 mm 2 m/s 757 mmHg 88%
    20:00 +8°C° 0 mm 3 m/s 757 mmHg 90%
    21:00 +8°C° 0 mm 3 m/s 758 mmHg 91%
    22:00 +7°C° 0 mm 2 m/s 758 mmHg 91%
    23:00 +7°C° 0 mm 2 m/s 758 mmHg 91%

    16 Decembrie, Duminică

    Timp Temperatura Precipitaţii Vânt Presiune Umiditate
    00:00 +6°C° 0 mm 2 m/s 759 mmHg 91%
    01:00 +6°C° 0 mm 2 m/s 759 mmHg 90%
    02:00 +5°C° 0 mm 2 m/s 759 mmHg 89%
    03:00 +5°C° 0 mm 2 m/s 760 mmHg 88%
    04:00 +5°C° 0 mm 2 m/s 760 mmHg 86%
    05:00 +4°C° 0 mm 2 m/s 760 mmHg 85%
    06:00 +4°C° 0 mm 2 m/s 760 mmHg 83%
    07:00 +6°C° 0 mm 1 m/s 761 mmHg 78%
    08:00 +7°C° 0 mm 1 m/s 761 mmHg 73%
    09:00 +7°C° 0 mm 1 m/s 761 mmHg 68%
    10:00 +9°C° 0 mm 1 m/s 761 mmHg 61%
    11:00 +10°C° 0 mm 2 m/s 761 mmHg 54%
    12:00 +12°C° 0 mm 2 m/s 761 mmHg 48%
    13:00 +13°C° 0 mm 2 m/s 761 mmHg 47%
    14:00 +13°C° 0 mm 2 m/s 760 mmHg 47%
    15:00 +13°C° 0 mm 2 m/s 760 mmHg 47%
    16:00 +12°C° 0 mm 2 m/s 760 mmHg 52%
    17:00 +10°C° 0 mm 2 m/s 761 mmHg 57%
    18:00 +8°C° 0 mm 2 m/s 761 mmHg 62%
    19:00 +8°C° 0 mm 2 m/s 761 mmHg 64%
    20:00 +8°C° 0 mm 1 m/s 761 mmHg 66%
    21:00 +8°C° 0 mm 1 m/s 761 mmHg 68%
    22:00 +7°C° 0 mm 2 m/s 761 mmHg 71%
    23:00 +6°C° 0 mm 2 m/s 761 mmHg 73%

    17 Decembrie, Luni

    Timp Temperatura Precipitaţii Vânt Presiune Umiditate
    00:00 +6°C° 0 mm 2 m/s 761 mmHg 76%
    01:00 +6°C° 0 mm 2 m/s 761 mmHg 78%
    02:00 +5°C° 0 mm 2 m/s 761 mmHg 80%
    03:00 +5°C° 0 mm 2 m/s 761 mmHg 82%
    04:00 +5°C° 0 mm 2 m/s 761 mmHg 81%
    05:00 +4°C° 0 mm 2 m/s 762 mmHg 80%
    06:00 +4°C° 0 mm 2 m/s 762 mmHg 79%
    07:00 +5°C° 0 mm 2 m/s 762 mmHg 74%
    08:00 +5°C° 0 mm 2 m/s 762 mmHg 70%
    09:00 +6°C° 0 mm 2 m/s 763 mmHg 65%
    10:00 +8°C° 0 mm 2 m/s 763 mmHg 58%
    11:00 +9°C° 0 mm 2 m/s 762 mmHg 52%
    12:00 +10°C° 0 mm 2 m/s 762 mmHg 45%
    13:00 +12°C° 0 mm 2 m/s 762 mmHg 45%
    14:00 +12°C° 0 mm 2 m/s 762 mmHg 45%
    15:00 +12°C° 0 mm 2 m/s 761 mmHg 46%
    16:00 +10°C° 0 mm 2 m/s 762 mmHg 50%
    17:00 +9°C° 0 mm 2 m/s 762 mmHg 54%
    18:00 +9°C° 0 mm 1 m/s 762 mmHg 59%
    19:00 +8°C° 0 mm 1 m/s 762 mmHg 60%
    20:00 +8°C° 0 mm 1 m/s 762 mmHg 61%
    21:00 +8°C° 0 mm 1 m/s 762 mmHg 63%
    22:00 +6°C° 0 mm 2 m/s 762 mmHg 64%
    23:00 +6°C° 0 mm 2 m/s 763 mmHg 65%
    Arată mai mult